{"data":{"norad_id":62241,"intl_designator":"2024-232E","name":"QIANFAN-40","alt_names":[],"object_type":"PAYLOAD","status":"ACTIVE","operator":null,"country":"PRC","launch_date":"2024-12-05","launch_site_code":"TAISC","launch_vehicle":null,"mission":null,"orbit_class":"UNKNOWN","rcs_meters":null,"size_class":null,"mass_kg":null,"dimensions":null,"purposes":[],"wikipedia_slug":null,"has_3d_model":false,"image_url":null,"decayed_at":null,"tle_current":{"epoch":"2026-05-25T03:18:17.280000Z","epoch_age_seconds":62864,"freshness":"FRESH","line1":"1 62241U 24232E   26145.13770000  .00000106  00000+0  14458-3 0  9995","line2":"2 62241  89.0128  24.4542 0015577  89.6861 270.6075 13.51009473121654","mean_motion":13.51009473,"eccentricity":0.0015577,"inclination_deg":89.0128,"raan_deg":24.4542,"arg_perigee_deg":89.6861,"mean_anomaly_deg":270.6075,"bstar":0.00014458,"rev_number":12165,"period_min":106.58696543425,"perigee_km":1056.9470759837,"apogee_km":1080.1464746172,"semimajor_km":7446.6837753005,"source":"CELESTRAK","updated_at":"2026-05-25T13:38:02.865999Z"}}}